W8AN Weather Reports


Display with metric or nautical units.
time (UTC)temp
F
wind
direction
speed
MPH
gust
MPH
rain 1hr
in
rain 24hr
in
rain mn
in
humidity
%
barometer
mb
20260504110311 51 207 5.0 6.0 0.00 0.00 0.00 68 4261.5
20260504100229 51 216 5.0 6.0 0.00 0.00 0.00 67 4261.7
20260504081622 51 206 5.0 7.0 0.00 0.00 0.00 67 4262.3
20260504081118 51 202 5.0 6.0 0.00 0.00 0.00 66 4262.5
20260504080615 51 256 4.0 5.0 0.00 0.00 0.00 66 4262.4
20260504080111 51 202 5.0 6.0 0.00 0.00 0.00 66 4262.4
20260504050427 50 233 3.0 3.0 0.00 0.00 0.00 68 4264.7
20260504045924 51 253 3.0 5.0 0.00 0.00 0.00 67 4264.7
20260504045420 50 206 4.0 5.0 0.00 0.00 0.00 68 4264.6
20260504044916 50 219 5.0 5.0 0.00 0.00 0.00 68 4264.7
20260504044414 50 213 4.0 5.0 0.00 0.00 0.00 69 4264.9
20260504043911 50 231 4.0 5.0 0.00 0.00 0.00 68 4264.9
20260504043408 50 208 4.0 5.0 0.00 0.00 0.00 68 4264.8
20260504042906 50 217 4.0 5.0 0.00 0.00 0.00 68 4264.9
20260504042402 50 222 3.0 5.0 0.00 0.00 0.00 69 4264.8
20260504041858 50 192 4.0 6.0 0.00 0.00 0.00 68 4265.0
20260504041354 50 211 4.0 5.0 0.00 0.00 0.00 68 4265.0
20260504040850 50 200 3.0 5.0 0.00 0.00 0.00 68 4264.8
20260504040348 50 214 4.0 5.0 0.00 0.00 0.00 68 4265.0
20260504035844 51 240 3.0 3.0 0.00 0.00 0.00 68 4265.0
20260504035342 51 232 3.0 3.0 0.00 0.00 0.00 67 4265.1
20260504034838 51 208 1.0 2.0 0.00 0.00 0.00 67 4265.4
20260504034336 51 216 4.0 5.0 0.00 0.00 0.00 68 4265.3
20260504033833 50 225 4.0 5.0 0.00 0.00 0.00 68 4265.5
20260504033331 50 223 3.0 3.0 0.00 0.00 0.00 69 4265.3
20260504032827 50 242 2.0 2.0 0.00 0.00 0.00 70 4265.4
20260504032325 50 229 2.0 2.0 0.00 0.00 0.00 70 4265.6
20260504031821 50 241 2.0 3.0 0.00 0.00 0.00 70 4265.5
20260504031319 50 214 3.0 3.0 0.00 0.00 0.00 70 4265.7
20260504030815 50 218 4.0 5.0 0.00 0.00 0.00 70 4265.6
20260504030312 50 196 0.0 0.0 0.00 0.00 0.00 70 4265.6
20260504025808 50 233 3.0 5.0 0.00 0.00 0.00 71 4265.7
20260504025306 50 209 3.0 3.0 0.00 0.00 0.00 72 4265.7
20260504024802 50 235 2.0 3.0 0.00 0.00 0.00 72 4265.9
20260504024258 50 246 2.0 2.0 0.00 0.00 0.00 72 4265.9
20260504023755 49 237 2.0 3.0 0.00 0.00 0.00 72 4265.9
20260504023252 49 212 3.0 3.0 0.00 0.00 0.00 74 4265.8
20260504022747 49 235 0.0 0.0 0.00 0.00 0.00 75 4265.9
20260504022244 48 239 0.0 0.0 0.00 0.00 0.00 76 4265.8
20260504021741 48 236 0.0 0.0 0.00 0.00 0.00 76 4265.9
20260504021238 48 224 0.0 0.0 0.00 0.00 0.00 76 4266.0
20260504020735 48 246 1.0 2.0 0.00 0.00 0.00 76 4266.0
20260504020232 48 228 2.0 2.0 0.00 0.00 0.00 75 4266.0
20260504015728 48 235 0.0 0.0 0.00 0.00 0.00 75 4266.1
20260504015225 48 249 0.0 0.0 0.00 0.00 0.00 74 4266.1
20260504014720 49 232 0.0 0.0 0.00 0.00 0.00 73 4266.0
20260504014217 49 240 2.0 2.0 0.00 0.00 0.00 73 4266.1
20260504013715 49 232 0.0 0.0 0.00 0.00 0.00 72 4266.1
20260504013212 49 247 0.0 0.0 0.00 0.00 0.00 72 4265.9
20260504012709 50 255 0.0 0.0 0.00 0.00 0.00 71 4266.3
20260504012207 50 231 3.0 3.0 0.00 0.00 0.00 70 4266.1
20260504011703 50 223 0.0 0.0 0.00 0.00 0.00 70 4266.1
20260504011200 50 228 2.0 2.0 0.00 0.00 0.00 70 4266.2
20260504010656 51 244 2.0 2.0 0.00 0.00 0.00 69 4266.2
20260504010151 51 254 2.0 2.0 0.00 0.00 0.00 70 4266.2
20260504005649 51 229 2.0 2.0 0.00 0.00 0.00 68 4266.0
20260504005145 51 215 3.0 5.0 0.00 0.00 0.00 67 4266.3
20260504004644 51 238 3.0 3.0 0.00 0.00 0.00 67 4266.4
20260504004140 51 202 4.0 5.0 0.00 0.00 0.00 67 4266.4
20260504003637 51 230 3.0 5.0 0.00 0.00 0.00 67 4266.3
20260504003133 51 226 3.0 3.0 0.00 0.00 0.00 67 4266.1
20260504002630 51 216 5.0 6.0 0.00 0.00 0.00 66 4266.1
20260504002128 52 225 4.0 5.0 0.00 0.00 0.00 66 4266.2
20260504001625 52 219 9.0 10.0 0.00 0.00 0.00 65 4266.1
20260504001121 52 222 4.0 6.0 0.00 0.00 0.00 65 4266.4
20260504000619 52 239 6.0 8.0 0.00 0.00 0.00 65 4266.4
20260504000116 52 219 5.0 6.0 0.00 0.00 0.00 65 4266.4
20260503235614 52 231 5.0 6.0 0.00 0.00 0.00 65 4266.5
20260503235110 52 238 7.0 9.0 0.00 0.00 0.00 63 4266.6
20260503234609 52 216 11.0 13.0 0.00 0.00 0.00 64 4266.8
20260503234106 53 222 8.0 9.0 0.00 0.00 0.00 64 4266.8
20260503233603 53 233 16.0 20.0 0.00 0.00 0.00 63 4267.0
20260503233058 53 238 8.0 9.0 0.00 0.00 0.00 62 4267.0
20260503232556 53 226 7.0 9.0 0.00 0.00 0.00 63 4266.8
20260503232053 53 192 9.0 11.0 0.00 0.00 0.00 62 4266.9
20260503231551 53 230 12.0 15.0 0.00 0.00 0.00 62 4267.0
20260503231047 54 212 11.0 15.0 0.00 0.00 0.00 62 4267.1
20260503230544 54 239 16.0 20.0 0.00 0.00 0.00 60 4266.8
20260503230042 54 224 11.0 13.0 0.00 0.00 0.00 62 4266.9
20260503225538 55 243 11.0 14.0 0.00 0.00 0.00 61 4267.1
20260503225033 55 248 16.0 21.0 0.00 0.00 0.00 59 4267.0
20260503224531 56 251 15.0 18.0 0.00 0.00 0.00 58 4266.7
20260503224029 57 228 15.0 18.0 0.00 0.00 0.00 58 4266.7
20260503223526 57 232 15.0 16.0 0.00 0.00 0.00 55 4266.7
20260503223022 58 243 14.0 18.0 0.00 0.00 0.00 54 4266.5
20260503222520 58 250 22.0 26.0 0.00 0.00 0.00 52 4266.3
20260503222018 59 220 19.0 25.0 0.00 0.00 0.00 51 4266.5
20260503221516 60 234 20.0 23.0 0.00 0.00 0.00 47 4266.3
20260503221013 60 231 15.0 17.0 0.00 0.00 0.00 39 4266.3
20260503220509 61 233 10.0 13.0 0.00 0.00 0.00 38 4266.3
20260503220006 61 219 14.0 15.0 0.00 0.00 0.00 38 4266.3
20260503215503 60 205 15.0 24.0 0.00 0.00 0.00 38 4266.0
20260503215000 60 226 17.0 22.0 0.00 0.00 0.00 38 4266.2
20260503214458 60 214 10.0 11.0 0.00 0.00 0.00 37 4266.3
20260503213955 61 205 12.0 15.0 0.00 0.00 0.00 38 4266.3
20260503213453 61 243 15.0 17.0 0.00 0.00 0.00 36 4266.2
20260503212949 61 234 17.0 17.0 0.00 0.00 0.00 37 4266.5
20260503212447 61 206 13.0 16.0 0.00 0.00 0.00 37 4266.1
20260503211944 61 235 16.0 20.0 0.00 0.00 0.00 36 4266.4
20260503211441 61 222 14.0 18.0 0.00 0.00 0.00 36 4266.1
20260503210936 61 228 18.0 25.0 0.00 0.00 0.00 36 4266.4
20260503210433 61 221 16.0 20.0 0.00 0.00 0.00 35 4266.5
20260503205928 61 226 13.0 20.0 0.00 0.00 0.00 37 4266.5
20260503205426 61 204 12.0 16.0 0.00 0.00 0.00 39 4266.4
20260503204921 61 229 17.0 24.0 0.00 0.00 0.00 35 4266.6
20260503204419 62 248 14.0 20.0 0.00 0.00 0.00 37 4266.8
20260503203916 62 264 17.0 20.0 0.00 0.00 0.00 36 4266.8
20260503203413 61 239 17.0 21.0 0.00 0.00 0.00 35 4267.0
20260503202910 62 224 22.0 27.0 0.00 0.00 0.00 33 4266.9
20260503202409 61 226 13.0 16.0 0.00 0.00 0.00 36 4266.7
20260503201907 61 235 11.0 14.0 0.00 0.00 0.00 38 4266.7
20260503201403 61 220 19.0 21.0 0.00 0.00 0.00 36 4266.8
20260503200901 61 218 18.0 21.0 0.00 0.00 0.00 35 4266.8
20260503200356 62 226 17.0 22.0 0.00 0.00 0.00 34 4267.0
20260503195854 63 234 13.0 16.0 0.00 0.00 0.00 37 4266.9
20260503195350 63 235 15.0 18.0 0.00 0.00 0.00 34 4267.1
20260503194848 62 260 10.0 13.0 0.00 0.00 0.00 37 4267.1
20260503194343 62 238 8.0 10.0 0.00 0.00 0.00 36 4267.0
20260503193840 62 220 15.0 20.0 0.00 0.00 0.00 34 4267.4
20260503193336 62 219 15.0 18.0 0.00 0.00 0.00 34 4267.3
20260503192832 62 217 14.0 17.0 0.00 0.00 0.00 35 4267.3
20260503192327 61 225 17.0 23.0 0.00 0.00 0.00 34 4267.3
20260503191824 61 235 13.0 15.0 0.00 0.00 0.00 34 4267.5
20260503191321 61 245 18.0 20.0 0.00 0.00 0.00 36 4267.5
20260503190818 61 247 24.0 30.0 0.00 0.00 0.00 36 4267.7
20260503190315 62 219 19.0 22.0 0.00 0.00 0.00 36 4267.8
20260503185812 61 222 16.0 20.0 0.00 0.00 0.00 35 4268.0
20260503185308 62 225 12.0 15.0 0.00 0.00 0.00 37 4267.9
20260503184808 61 238 13.0 17.0 0.00 0.00 0.00 35 4268.0
20260503184304 61 234 15.0 18.0 0.00 0.00 0.00 36 4267.9
20260503183800 61 255 16.0 20.0 0.00 0.00 0.00 35 4268.0
20260503183258 61 221 18.0 23.0 0.00 0.00 0.00 34 4268.0
20260503182755 61 214 13.0 15.0 0.00 0.00 0.00 37 4268.3
20260503182254 60 214 15.0 17.0 0.00 0.00 0.00 35 4268.2
20260503181750 60 227 16.0 23.0 0.00 0.00 0.00 36 4268.3
20260503181248 61 224 19.0 23.0 0.00 0.00 0.00 36 4268.6
20260503180744 61 258 13.0 20.0 0.00 0.00 0.00 33 4268.3
20260503180242 61 223 10.0 11.0 0.00 0.00 0.00 35 4268.5
20260503175738 61 286 9.0 13.0 0.00 0.00 0.00 36 4268.4
20260503175237 61 215 17.0 22.0 0.00 0.00 0.00 36 4268.6
20260503174732 60 223 15.0 21.0 0.00 0.00 0.00 34 4268.6
20260503174231 61 233 14.0 15.0 0.00 0.00 0.00 38 4268.7
20260503173730 61 235 13.0 14.0 0.00 0.00 0.00 39 4268.9
20260503173227 60 235 15.0 21.0 0.00 0.00 0.00 35 4268.7
20260503172724 60 234 15.0 20.0 0.00 0.00 0.00 37 4269.0
20260503172221 60 256 13.0 15.0 0.00 0.00 0.00 38 4268.8
20260503171717 60 285 11.0 15.0 0.00 0.00 0.00 37 4268.9
20260503171215 60 235 12.0 15.0 0.00 0.00 0.00 38 4269.0
20260503170712 60 256 26.0 31.0 0.00 0.00 0.00 37 4269.2
20260503170208 60 219 21.0 26.0 0.00 0.00 0.00 39 4269.0
20260503160130 57 228 11.0 14.0 0.00 0.00 0.00 49 4269.9
20260503150600 54 225 11.0 14.0 0.00 0.00 0.00 51 4270.4
20260503130943 47 218 15.0 17.0 0.00 0.00 0.00 59 4270.9
20260503130441 47 246 12.0 15.0 0.00 0.00 0.00 59 4270.9